Location: Gensac
(43.2177°N, 1.1313°E)
Time: 22:38:23
(UTC+00:00)

Cosmos 2360 Rocket - Visible Passes

Search period start: 12 March 2026 00:00
Search period end: 22 March 2026 00:00
Orbit: 833 x 843 km, 71.0° (Epoch: 12 March)

Date Brightness Start Highest point End Pass type
(mag) Time Alt. Az. Time Alt. Az. Time Alt. Az.
12 Mar 5.1 01:23:17 11° NNE 01:23:17 11° NNE 01:23:28 10° NNE visible
12 Mar 4.3 03:05:01 16° NNW 03:05:01 16° NNW 03:06:43 10° N visible
13 Mar 4.4 02:49:10 16° N 02:49:10 16° N 02:50:40 10° N visible
14 Mar 4.5 02:33:18 15° N 02:33:18 15° N 02:34:38 10° N visible
15 Mar 4.6 02:17:25 15° N 02:17:25 15° N 02:18:34 10° N visible
16 Mar 4.7 02:01:31 14° N 02:01:31 14° N 02:02:31 10° N visible
17 Mar 4.8 01:45:35 14° N 01:45:35 14° N 01:46:27 10° N visible
18 Mar 4.8 01:29:38 13° N 01:29:38 13° N 01:30:22 10° N visible
19 Mar 4.9 01:13:40 13° N 01:13:40 13° N 01:14:18 10° N visible
20 Mar 5.0 00:57:41 12° N 00:57:41 12° N 00:58:13 10° N visible
21 Mar 5.0 00:41:39 12° N 00:41:39 12° N 00:42:08 10° NNE visible
